DAL1440 KLAS-KSEZ

Flight info

Callsign DAL1440
Flight time N/A
Altitude 29000
Route RASLR3 ZAYNE DRK
Aircraft F28/M-SDFIRWY/H

Departure

Time 2026-05-07 01:18
Airport Harry Reid International Airport (KLAS)

Arrival

Time N/A
Airport Sedona Airport (KSEZ)
Time Latitude Longitude Altitude Speed Heading
2026-05-07 01:05 36.08322 -115.13505 2094 ft 0 kts 240°
2026-05-07 01:09 36.08328 -115.13492 2093 ft 2 kts 239°
2026-05-07 01:09 36.08337 -115.13474 2092 ft 3 kts 239°
2026-05-07 01:09 36.08343 -115.13461 2091 ft 3 kts 236°
2026-05-07 01:10 36.08366 -115.13450 2089 ft 3 kts 181°
2026-05-07 01:10 36.08380 -115.13455 2088 ft 0 kts 135°
2026-05-07 01:11 36.08376 -115.13450 2088 ft 5 kts 135°
2026-05-07 01:11 36.08357 -115.13422 2090 ft 6 kts 127°
2026-05-07 01:11 36.08324 -115.13380 2092 ft 6 kts 142°
2026-05-07 01:11 36.08304 -115.13372 2094 ft 11 kts 177°
2026-05-07 01:12 36.08201 -115.13375 2102 ft 15 kts 181°
2026-05-07 01:12 36.08106 -115.13375 2108 ft 16 kts 180°
2026-05-07 01:12 36.07972 -115.13375 2118 ft 21 kts 181°
2026-05-07 01:12 36.07847 -115.13376 2123 ft 15 kts 180°
2026-05-07 01:13 36.07758 -115.13356 2124 ft 11 kts 126°
2026-05-07 01:13 36.07755 -115.13271 2122 ft 12 kts 90°
2026-05-07 01:13 36.07754 -115.13122 2120 ft 20 kts 90°
2026-05-07 01:13 36.07754 -115.12959 2120 ft 19 kts 90°
2026-05-07 01:14 36.07754 -115.12801 2118 ft 18 kts 89°
2026-05-07 01:14 36.07754 -115.12647 2116 ft 18 kts 90°
2026-05-07 01:14 36.07754 -115.12506 2117 ft 15 kts 89°
2026-05-07 01:14 36.07755 -115.12387 2118 ft 13 kts 90°
2026-05-07 01:15 36.07754 -115.12279 2118 ft 12 kts 94°
2026-05-07 01:15 36.07709 -115.12238 2120 ft 8 kts 180°
2026-05-07 01:15 36.07658 -115.12248 2122 ft 7 kts 214°
2026-05-07 01:15 36.07642 -115.12296 2120 ft 0 kts 271°
2026-05-07 01:16 36.07643 -115.12308 2120 ft 0 kts 271°
2026-05-07 01:17 36.07644 -115.12396 2118 ft 45 kts 271°
2026-05-07 01:17 36.07642 -115.13208 2123 ft 141 kts 270°
2026-05-07 01:18 36.07641 -115.14653 2546 ft 192 kts 270°
2026-05-07 01:18 36.07674 -115.16389 3677 ft 206 kts 271°
2026-05-07 01:18 36.07709 -115.18243 4625 ft 230 kts 272°
2026-05-07 01:18 36.07635 -115.20355 4899 ft 257 kts 265°
2026-05-07 01:19 36.07396 -115.22601 4969 ft 270 kts 262°
2026-05-07 01:19 36.07069 -115.24825 4976 ft 256 kts 254°
2026-05-07 01:19 36.06161 -115.26644 4974 ft 254 kts 223°
2026-05-07 01:19 36.04608 -115.27691 5471 ft 254 kts 200°
2026-05-07 01:20 36.02903 -115.28364 6011 ft 259 kts 197°
2026-05-07 01:20 36.01157 -115.28989 6412 ft 262 kts 196°
2026-05-07 01:20 35.99376 -115.29282 6735 ft 266 kts 173°
2026-05-07 01:20 35.97676 -115.28463 7366 ft 265 kts 143°
2026-05-07 01:21 35.96266 -115.26955 8024 ft 270 kts 134°
2026-05-07 01:21 35.94924 -115.25307 8748 ft 274 kts 132°
2026-05-07 01:21 35.93566 -115.23612 9476 ft 279 kts 132°
2026-05-07 01:21 35.92196 -115.21923 10181 ft 283 kts 133°
2026-05-07 01:22 35.90873 -115.20122 10940 ft 281 kts 122°
2026-05-07 01:22 35.89828 -115.18080 11734 ft 280 kts 116°
2026-05-07 01:22 35.88866 -115.16002 12615 ft 278 kts 115°
2026-05-07 01:22 35.87926 -115.13903 13013 ft 297 kts 114°
2026-05-07 01:23 35.86877 -115.11540 13200 ft 319 kts 115°
2026-05-07 01:23 35.85959 -115.09119 14251 ft 309 kts 105°
2026-05-07 01:23 35.85322 -115.06567 14925 ft 312 kts 102°
2026-05-07 01:23 35.84753 -115.03969 15597 ft 316 kts 101°
2026-05-07 01:24 35.84195 -115.01331 16249 ft 319 kts 101°
2026-05-07 01:24 35.83623 -114.98664 16850 ft 325 kts 101°
2026-05-07 01:24 35.83026 -114.95987 17486 ft 329 kts 101°
2026-05-07 01:24 35.82403 -114.93256 18119 ft 333 kts 102°
2026-05-07 01:25 35.81747 -114.90502 18690 ft 335 kts 102°
2026-05-07 01:25 35.81071 -114.87731 19265 ft 337 kts 102°
2026-05-07 01:25 35.80391 -114.84986 19821 ft 340 kts 103°
2026-05-07 01:25 35.79705 -114.82192 20387 ft 342 kts 102°
2026-05-07 01:26 35.79027 -114.79373 20940 ft 344 kts 102°
2026-05-07 01:26 35.78333 -114.76532 21410 ft 347 kts 102°
2026-05-07 01:26 35.77642 -114.73701 21920 ft 349 kts 102°
2026-05-07 01:26 35.76939 -114.70813 22426 ft 351 kts 102°
2026-05-07 01:27 35.76233 -114.67957 22949 ft 352 kts 102°
2026-05-07 01:27 35.75521 -114.65062 23375 ft 356 kts 102°
2026-05-07 01:27 35.74803 -114.62134 23777 ft 358 kts 102°
2026-05-07 01:27 35.74083 -114.59184 24161 ft 360 kts 102°
2026-05-07 01:28 35.73363 -114.56220 24546 ft 362 kts 102°
2026-05-07 01:28 35.72639 -114.53244 24934 ft 363 kts 102°
2026-05-07 01:28 35.71902 -114.50293 25236 ft 366 kts 102°
2026-05-07 01:28 35.71159 -114.47295 25601 ft 368 kts 102°
2026-05-07 01:29 35.70339 -114.44299 25922 ft 374 kts 110°
2026-05-07 01:29 35.68901 -114.41577 26295 ft 384 kts 123°
2026-05-07 01:29 35.67101 -114.39105 26614 ft 389 kts 129°
2026-05-07 01:29 35.65132 -114.36786 26899 ft 393 kts 133°
2026-05-07 01:30 35.63070 -114.34543 27179 ft 397 kts 134°
2026-05-07 01:30 35.60984 -114.32380 27546 ft 397 kts 135°
2026-05-07 01:30 35.58849 -114.30191 27842 ft 399 kts 135°
2026-05-07 01:30 35.56716 -114.27992 28128 ft 401 kts 135°
2026-05-07 01:31 35.54574 -114.25781 28401 ft 403 kts 135°
2026-05-07 01:31 35.52438 -114.23550 28678 ft 404 kts 134°
2026-05-07 01:31 35.50299 -114.21291 28878 ft 408 kts 134°
2026-05-07 01:32 35.45948 -114.16708 28960 ft 422 kts 134°